Regional Weather Roundup
Issued by NWS

Home | Current Version | Previous Version | Graphics & Text | Print | Product List | Glossary On
Versions: 1 2 3 4 5 6 7 8 9 10 11 12 13 14 15 16 17 18 19 20 21 22 23 24 25 26 27 28 29 30 31 32 33 34 35 36 37 38 39 40 41 42 43 44 45 46 47 48 49 50
000
ASUS45 KBOI 012110
RWRID

IDAHO REGIONAL WEATHER ROUNDUP
NATIONAL WEATHER SERVICE BOISE ID
300 PM MDT SAT AUG 01 2015

NOTE: "FAIR" INDICATES FEW OR NO CLOUDS BELOW 12000 FEET
WITH NO SIGNIFICANT WEATHER AND/OR OBSTRUCTIONS TO VISIBILITY

IDZ012-014-012200-
SOUTHWEST IDAHO


CITY           SKY/WX    TMP DP  RH WIND       PRES   REMARKS
BOISE          SUNNY    100  36  11 NW7       29.97F HX  94
CALDWELL       SUNNY     99  43  14 N3        29.96F HX  94
MOUNTAIN HOME  SUNNY     99  29   8 CALM      29.97F HX  92
$$

IDZ016-017-012200-
SOUTHCENTRAL IDAHO


CITY           SKY/WX    TMP DP  RH WIND       PRES   REMARKS
BURLEY         SUNNY     94  31  10 NW6       30.06F
JEROME         SUNNY     94  29  10 S5        30.07F
TWIN FALLS     SUNNY     97  30   9 VRB6      30.05F HX  91
$$

IDZ019>023-012200-
SOUTHEAST IDAHO


CITY           SKY/WX    TMP DP  RH WIND       PRES   REMARKS
IDAHO FALLS    SUNNY     92  30  11 W7        30.13F
POCATELLO      SUNNY     93  26   9 VRB3      30.11F
REXBURG        SUNNY     90  25   9 NE3       30.13F
$$

IDZ006-010-011-018-031-032-012200-
CENTRAL IDAHO MOUNTAINS


CITY           SKY/WX    TMP DP  RH WIND       PRES   REMARKS
MCCALL         SUNNY     91  31  11 W10G21    30.12F
HAILEY         MOSUNNY   88  37  16 SW9G16    30.16F
STANLEY          N/A     88  28  11 VRB6      30.25F
SALMON         SUNNY     88  41  19 W5        30.02F
CHALLIS        SUNNY     92  29  10 SE8       30.11F
$$

IDZ002-004-006-007-026-012200-
NORTHERN IDAHO


CITY           SKY/WX    TMP DP  RH WIND       PRES   REMARKS
LEWISTON       SUNNY    102  34   9 NW8       29.88F HX  96
LOWELL           N/A    102  45  14 CALM      29.86F HX  98
COEUR D`ALENE  SUNNY     97  37  12 SW13      29.92F HX  92
MULLAN PASS    SUNNY     82  30  15 MISG      30.21S
$$


USA.gov is the U.S. government's official web portal to all federal, state and local government web resources and services.